Theta_e
303 302 302 303 304 304 304 304 304 304 304 305 306 306 306 305 305 307 311 314 313 313 313 311 315 313 324 327 314 316 323 327 328 330 330 325 328 326 325 327 328 329 330 335 339
302 303 302 302 302 303 303 304 304 304 304 304 305 306 306 302 305 309 314 314 313 314 313 314 315 315 325 328 315 317 322 324 325 323 327 328 327 326 327 326 327 339 339 339 339
303 303 303 302 302 303 303 303 303 304 304 304 304 304 305 302 307 313 311 311 313 316 315 316 312 317 327 325 323 316 321 322 322 319 316 325 325 325 326 327 325 338 340 338 338
304 303 303 303 301 302 302 303 303 303 303 303 304 304 300 304 307 311 307 308 311 315 318 317 312 316 325 330 326 324 319 320 319 323 317 317 320 326 325 325 325 335 338 337 336
304 305 304 303 302 302 302 302 302 303 303 303 303 303 303 303 304 306 303 306 309 311 316 316 313 313 325 325 330 327 321 318 325 325 320 318 320 322 323 324 325 333 338 337 335
303 302 304 303 302 302 301 301 302 302 302 303 303 303 303 302 301 303 305 306 307 307 310 313 314 312 313 316 328 328 323 323 326 325 322 319 318 321 321 323 329 339 338 335 334
303 301 302 303 303 303 302 301 301 301 301 302 302 303 303 301 299 300 301 302 305 306 309 312 312 311 310 313 322 325 327 324 325 326 323 320 319 320 318 322 326 332 336 335 334
303 301 300 303 303 303 302 301 300 300 301 302 302 303 301 299 300 301 302 302 303 304 308 311 312 313 309 307 322 322 323 328 326 326 325 321 324 318 316 319 325 325 331 335 335
302 301 302 301 303 302 302 298 293 300 303 303 302 303 301 300 302 303 304 302 302 305 307 308 312 312 309 308 322 323 323 325 326 326 328 325 322 318 317 317 318 322 325 331 333
303 302 302 301 302 302 300 295 299 301 302 302 302 299 299 300 302 301 301 303 303 303 308 310 314 313 308 308 318 321 325 324 325 324 326 329 328 321 319 316 314 320 321 324 330
302 302 302 301 302 301 297 298 297 298 298 298 300 300 301 300 299 301 300 300 304 304 309 313 315 317 310 309 309 316 322 322 324 324 326 326 327 327 322 322 317 314 313 316 323
302 302 302 301 301 297 298 298 298 298 298 298 298 298 299 300 300 299 299 300 305 308 308 309 314 312 311 308 309 310 311 314 318 320 326 327 328 325 323 323 321 317 315 312 313
302 302 301 301 299 297 298 297 298 298 297 298 299 300 301 301 301 299 300 300 302 306 308 309 310 311 313 312 310 310 311 312 317 314 313 317 321 325 323 320 322 320 317 313 315
301 300 301 300 298 295 298 297 298 298 287 295 301 301 301 302 302 301 300 300 302 305 306 310 308 309 314 314 313 311 311 311 314 319 323 316 328 318 323 323 322 323 321 314 313
300 300 300 296 296 297 298 297 298 298 287 297 300 300 300 301 301 301 301 301 302 303 307 308 309 308 311 315 313 312 310 311 316 316 316 315 320 319 317 319 320 322 322 315 310
301 300 298 296 298 298 297 298 298 291 288 293 299 299 299 300 301 301 302 302 302 303 305 305 305 306 309 309 312 310 309 310 314 315 315 315 319 317 319 318 318 319 321 308 306
300 299 298 296 298 297 297 298 291 288 291 291 292 297 298 299 299 301 302 303 302 301 298 303 305 306 307 311 313 312 309 311 317 317 316 314 316 316 314 308 313 310 312 311 310
301 298 297 296 297 296 297 289 289 289 286 296 297 297 297 299 299 301 301 301 305 305 305 300 300 307 308 312 313 314 309 311 312 316 313 314 316 314 313 308 304 305 308 308 309
300 298 298 296 297 296 290 288 290 288 296 297 296 291 286 295 299 299 299 300 304 304 303 306 305 309 309 309 312 313 311 308 307 304 312 313 310 310 307 305 306 309 309 310 310
299 299 297 297 297 295 290 293 288 295 297 297 297 295 289 288 294 295 301 299 302 302 302 303 306 307 308 310 312 312 310 309 308 304 307 309 308 309 305 307 309 310 310 310 309
299 295 297 298 298 295 288 283 289 295 297 297 297 294 293 295 293 292 300 301 301 300 303 303 305 309 307 314 313 315 313 309 308 305 308 310 307 306 304 308 308 308 307 306 307
297 288 297 297 289 290 285 287 295 295 296 296 297 297 297 295 289 297 299 301 300 302 303 303 300 307 309 307 306 309 312 308 311 307 303 307 307 304 305 307 307 307 306 304 304
294 293 297 296 291 283 284 292 295 295 296 294 296 298 297 297 297 297 299 299 301 304 304 303 304 298 304 310 306 311 311 308 308 305 306 304 307 304 305 304 304 305 304 303 302
290 288 287 288 285 284 283 286 291 296 295 296 295 295 296 296 297 299 297 299 301 300 304 303 304 301 305 304 305 306 309 311 309 306 307 305 305 305 305 305 303 303 302 301 300
291 286 286 287 291 284 287 293 294 294 292 296 296 296 292 291 296 296 296 297 298 298 300 303 301 303 304 304 306 306 306 312 311 309 307 306 307 305 304 303 302 301 300 300 299
289 285 286 278 289 284 284 288 294 293 295 291 294 295 294 291 295 298 297 296 297 297 299 300 302 301 298 301 303 306 306 310 310 309 309 305 306 303 300 299 300 300 299 299 298
294 294 290 288 283 286 286 288 293 293 293 295 295 295 295 296 295 294 295 295 296 296 297 299 301 299 299 299 301 299 302 306 308 309 309 309 307 301 299 302 300 299 298 297 297
Wind_Speed
14 14 15 14 14 16 17 17 15 14 14 15 17 17 19 19 17 7 1 6 8 13 17 16 8 13 3 3 2 1 2 3 4 4 4 10 1 6 2 7 4 4 6 11 33
13 14 16 16 15 15 16 16 17 17 15 15 16 17 19 17 13 7 3 7 7 9 11 3 2 8 3 3 2 4 4 6 5 5 6 7 5 5 4 5 5 7 11 28 32
12 12 14 16 16 15 15 16 16 16 17 16 17 18 19 11 4 3 7 9 10 8 6 4 1 0 2 1 2 4 6 4 1 5 8 7 10 6 4 1 6 11 11 10 18
11 12 12 13 15 16 16 15 14 15 15 16 16 18 17 5 2 7 17 18 13 13 5 5 2 2 2 3 3 4 7 6 1 5 6 8 8 8 0 3 3 17 21 12 11
9 10 11 12 12 14 16 16 16 15 14 14 14 15 9 4 6 7 18 14 15 16 4 2 3 3 5 4 3 4 3 6 4 5 5 8 6 4 9 8 2 16 16 16 12
11 12 10 9 12 13 16 18 17 16 15 13 12 12 5 4 5 8 7 10 11 14 15 6 3 2 5 5 7 3 7 11 3 5 5 4 6 3 6 6 8 17 13 13 14
12 14 11 9 11 13 15 17 19 18 16 14 11 8 5 12 8 13 13 14 11 13 8 12 12 1 5 2 5 3 4 5 8 3 3 3 7 4 8 7 4 6 13 12 13
11 14 14 12 12 14 17 19 21 21 18 13 9 6 6 11 14 15 13 17 14 13 16 18 15 5 4 4 2 6 2 5 4 10 5 5 10 9 9 9 8 10 9 13 15
12 13 14 14 10 13 18 23 23 16 13 9 5 5 7 12 3 7 10 12 14 14 15 14 8 4 2 3 3 6 5 7 4 9 8 12 3 7 2 4 8 8 9 10 11
9 13 13 11 9 14 19 20 11 7 5 1 6 3 5 3 6 13 13 15 9 9 8 5 4 5 4 8 14 4 7 6 6 6 10 16 12 8 7 6 9 8 9 8 12
11 13 13 11 9 14 17 7 7 4 5 6 9 7 11 19 22 6 11 15 5 5 9 7 8 15 16 13 9 2 6 12 8 9 8 19 15 17 8 14 9 9 7 4 8
12 12 12 11 9 9 10 5 1 3 8 15 16 13 20 15 8 15 15 4 5 12 8 6 19 15 10 11 11 14 8 5 2 2 9 9 16 17 11 13 16 7 8 8 7
10 10 10 6 7 3 9 5 7 5 3 7 4 3 2 7 6 15 7 3 7 11 13 17 9 16 13 12 14 16 18 8 2 2 2 5 5 7 7 7 17 12 7 7 4
10 9 6 2 1 4 3 9 7 0 3 5 2 1 3 3 5 12 16 9 6 6 12 11 16 17 15 17 14 15 7 6 6 5 6 2 5 8 15 15 17 21 15 7 8
11 8 1 1 1 4 5 8 5 1 4 5 2 2 4 4 6 3 3 6 9 8 3 4 9 16 19 9 12 10 8 10 6 3 2 2 1 5 11 17 19 21 20 9 4
6 2 4 4 7 4 6 2 2 5 4 5 4 3 4 4 4 6 3 2 3 9 10 13 2 6 5 16 15 7 5 5 4 4 3 8 7 3 8 13 16 15 19 12 12
4 6 4 1 2 2 5 1 4 4 4 7 4 4 6 4 6 4 5 6 6 2 2 5 10 5 6 4 17 13 8 3 4 4 10 13 3 9 3 9 8 8 9 13 15
10 7 5 5 1 2 2 5 5 3 5 4 5 12 1 5 4 7 5 4 3 4 3 5 7 14 13 8 7 12 14 4 8 9 3 11 8 5 15 5 8 10 13 12 11
12 8 3 6 4 4 4 3 5 4 3 6 9 6 6 6 4 6 3 3 2 7 5 3 5 2 7 9 11 10 17 9 5 3 4 5 5 7 3 9 9 10 12 11 10
9 6 3 3 4 3 3 4 2 3 4 3 2 1 2 5 6 5 5 3 2 1 3 1 6 2 3 6 14 7 14 9 1 7 4 4 4 5 7 12 12 12 14 11 10
4 2 0 2 1 2 2 5 3 5 3 2 3 4 4 3 2 3 5 2 3 3 5 2 2 2 1 6 9 13 11 9 5 5 6 4 4 1 6 13 14 13 12 9 8
3 2 1 2 3 1 1 4 3 4 1 2 2 4 4 4 3 2 4 3 6 4 3 3 2 4 6 6 10 6 13 26 9 7 2 3 3 12 12 14 17 14 12 7 8
2 1 0 1 2 2 5 3 3 2 2 1 2 1 3 3 4 3 5 4 8 6 3 1 0 4 6 3 2 4 7 18 7 4 4 5 2 5 15 13 10 13 9 10 10
2 1 3 4 2 5 2 3 4 3 3 3 4 1 3 3 3 3 4 3 3 7 14 3 2 4 2 3 4 6 10 6 17 5 7 5 10 4 6 11 9 9 9 10 8
2 2 2 2 2 1 2 3 2 3 1 2 3 0 3 2 4 3 3 6 3 9 10 3 3 0 1 4 3 4 5 5 10 5 13 16 18 11 9 9 7 8 10 10 8
3 3 1 1 2 2 2 3 3 4 2 4 2 5 2 5 4 4 4 3 3 8 7 8 2 2 2 3 4 4 8 6 6 6 6 14 12 6 6 9 8 10 10 9 7
2 2 4 3 1 3 4 5 4 2 3 6 2 4 3 4 4 8 6 5 4 4 5 5 5 4 2 5 4 4 3 4 5 5 7 16 10 5 8 11 10 8 9 8 7
Wind_Direction
12 12 14 16 17 10 5 1 2 6 360 358 355 350 346 341 341 343 349 300 287 280 297 316 356 344 326 249 215 82 46 240 239 266 282 337 9 325 105 108 67 50 135 159 157
359 359 360 2 5 6 3 360 358 356 359 353 351 347 344 348 333 288 11 10 336 298 272 284 355 345 329 256 231 129 160 228 246 7 343 313 32 315 73 87 61 65 64 130 152
347 351 351 350 352 356 359 357 354 353 351 352 348 343 341 349 304 92 25 358 14 338 245 201 240 148 218 69 278 204 198 221 335 48 352 341 350 322 121 172 177 156 146 140 152
327 336 339 343 342 343 349 351 350 348 346 344 345 345 350 8 77 157 9 359 356 15 164 188 188 125 241 191 232 244 222 215 303 39 5 335 310 338 317 243 190 165 154 151 171
330 324 315 327 335 334 337 341 341 339 338 340 340 345 6 357 258 251 310 340 342 9 340 273 184 150 187 212 225 220 260 274 54 23 341 336 319 280 296 292 41 143 151 156 168
346 344 321 309 325 329 329 329 329 328 326 327 331 337 336 267 281 326 326 359 349 345 334 330 253 263 261 228 185 254 228 258 5 337 325 336 308 16 295 357 93 146 154 160 169
342 345 340 308 315 319 322 320 316 314 313 314 315 317 253 250 285 290 299 302 299 312 302 307 323 270 353 253 197 168 272 295 240 197 259 345 323 241 263 291 131 183 155 158 172
340 341 338 316 309 316 317 315 308 306 305 301 297 288 250 289 315 292 293 297 281 276 275 285 292 272 197 343 127 141 142 237 203 173 223 98 258 298 291 277 264 189 183 170 181
333 337 334 328 304 313 317 318 314 309 305 290 271 193 269 326 298 316 315 271 285 273 272 284 260 221 193 176 186 201 186 208 310 198 186 186 196 208 342 323 301 219 196 184 183
326 329 331 332 318 322 325 326 333 323 338 193 238 35 285 300 353 324 313 307 255 266 268 225 213 199 207 188 205 161 194 204 196 209 200 229 218 266 290 18 326 264 208 207 187
323 325 328 327 325 334 348 352 13 6 20 307 278 264 286 298 305 239 314 326 265 217 218 211 211 211 207 221 253 198 178 204 202 227 173 218 221 228 231 294 304 310 297 235 226
315 319 320 319 321 358 21 61 80 291 303 278 265 276 265 259 272 271 275 287 230 224 208 249 231 212 193 209 225 249 249 235 200 256 204 208 226 219 192 207 245 278 313 316 310
311 312 317 309 328 15 72 68 319 315 286 290 245 256 313 315 257 264 189 243 267 244 216 220 245 203 218 212 207 222 235 223 210 178 61 106 266 218 217 208 233 239 249 282 260
312 321 310 318 4 347 59 356 340 47 57 283 220 129 315 350 281 266 226 195 226 232 227 237 238 240 222 220 213 225 202 204 174 171 206 195 258 214 215 222 222 234 231 231 290
299 312 323 100 8 62 339 327 299 296 38 281 324 302 255 211 305 267 223 151 237 224 173 230 211 228 223 243 220 221 186 198 157 120 120 244 179 269 194 214 220 225 228 193 65
275 272 117 96 74 58 350 358 329 51 270 319 330 303 307 286 232 274 281 342 218 243 228 254 131 309 321 217 234 249 167 158 118 112 253 183 184 233 197 215 212 214 222 123 94
192 148 89 50 69 356 17 37 39 122 332 295 275 310 294 292 308 326 262 213 212 178 243 257 215 205 213 275 199 226 173 141 164 189 234 152 180 233 271 308 193 172 178 155 151
157 146 93 44 72 44 339 51 82 243 248 304 309 305 293 345 319 319 288 205 238 270 294 183 274 168 169 230 210 209 197 175 169 192 155 142 221 236 218 132 72 77 86 86 94
148 119 79 345 68 38 69 57 204 219 295 327 320 37 328 354 313 352 321 319 136 173 205 295 270 62 191 189 190 191 217 204 109 36 109 193 257 312 126 124 113 104 97 95 99
142 144 87 15 21 71 73 261 210 352 331 329 336 58 311 299 6 1 313 329 20 242 267 168 291 266 316 196 209 209 203 212 113 143 186 206 198 194 150 139 132 120 112 109 108
135 70 12 358 75 64 126 233 288 273 278 345 323 311 281 290 223 297 310 297 340 288 209 227 228 267 343 200 192 200 212 234 180 155 171 138 230 151 184 146 128 123 114 122 117
77 66 357 321 64 137 115 198 264 283 322 286 274 249 262 300 297 300 295 269 277 311 255 229 221 278 259 195 179 258 214 200 205 211 229 132 298 325 139 130 125 119 118 109 94
80 216 92 325 136 302 310 286 224 253 282 327 274 23 282 281 312 348 299 324 11 348 316 309 120 314 339 144 10 306 206 194 204 111 211 118 217 4 105 108 118 122 114 104 101
87 14 332 41 165 131 96 274 300 230 235 244 239 81 313 324 287 268 320 337 35 351 331 276 224 185 352 240 286 311 278 171 203 174 196 161 135 136 102 119 123 116 104 98 96
33 248 192 208 300 107 115 231 253 317 253 232 311 277 195 312 305 316 321 309 301 358 339 317 176 247 0 288 269 268 328 158 205 217 189 159 146 160 142 132 132 113 108 103 101
139 150 314 189 160 86 275 255 212 278 198 285 170 301 284 206 215 304 325 356 319 336 343 328 49 56 289 315 274 314 351 61 92 100 58 126 117 143 122 101 106 120 119 120 125
161 175 110 208 212 104 227 231 240 19 268 222 302 315 277 211 269 251 241 257 259 299 319 341 346 6 250 337 7 10 309 15 64 79 134 139 142 134 115 124 135 129 126 131 129